Time,TemperatureF,DewpointF,PressureIn,WindDirection,WindDirectionDegrees,WindSpeedMPH,WindSpeedGustMPH,Humidity,HourlyPrecipIn,Conditions,Clouds,dailyrainin,SoftwareType,DateUTC
2014-10-01 00:02:00,54.9,51.4,29.84,West,277,0.0,9.0,88,0.00,,---,0.03,VWS V15.00,2014-10-01 07:02:00,
2014-10-01 00:07:00,54.8,51.3,29.84,WSW,252,4.0,9.0,88,0.00,,---,0.00,VWS V15.00,2014-10-01 07:07:00,
2014-10-01 00:12:00,54.8,51.6,29.84,WNW,286,7.0,8.0,89,0.00,,---,0.00,VWS V15.00,2014-10-01 07:12:00,
2014-10-01 00:17:00,54.8,51.6,29.85,West,271,3.0,8.0,89,0.00,,---,0.00,VWS V15.00,2014-10-01 07:17:00,
2014-10-01 00:22:00,54.8,51.6,29.85,WSW,258,2.0,8.0,89,0.00,,---,0.00,VWS V15.00,2014-10-01 07:22:00,
2014-10-01 00:27:00,54.9,51.7,29.85,WNW,296,4.0,9.0,89,0.00,,---,0.00,VWS V15.00,2014-10-01 07:27:00,
2014-10-01 00:32:00,54.9,51.7,29.85,WNW,290,4.0,9.0,89,0.00,,---,0.00,VWS V15.00,2014-10-01 07:32:00,
2014-10-01 00:37:00,54.9,51.7,29.85,West,263,5.0,9.0,89,0.00,,---,0.00,VWS V15.00,2014-10-01 07:37:00,
2014-10-01 00:42:00,54.8,51.6,29.85,WSW,250,1.0,6.0,89,0.00,,---,0.00,VWS V15.00,2014-10-01 07:42:00,
2014-10-01 00:46:00,54.8,51.6,29.85,West,261,5.0,8.0,89,0.00,,---,0.00,VWS V15.00,2014-10-01 07:46:00,
2014-10-01 00:51:00,54.7,51.5,29.84,WSW,251,2.0,9.0,89,0.00,,---,0.00,VWS V15.00,2014-10-01 07:51:00,
2014-10-01 00:56:00,54.6,51.4,29.84,West,275,2.0,10.0,89,0.00,,---,0.00,VWS V15.00,2014-10-01 07:56:00,
2014-10-01 01:01:00,54.4,51.2,29.84,WNW,284,5.0,10.0,89,0.00,,---,0.00,VWS V15.00,2014-10-01 08:01:00,
2014-10-01 01:06:00,54.3,51.4,29.84,WSW,250,0.0,10.0,90,0.00,,---,0.00,VWS V15.00,2014-10-01 08:06:00,
2014-10-01 01:11:00,54.1,51.2,29.84,West,274,6.0,10.0,90,0.00,,---,0.00,VWS V15.00,2014-10-01 08:11:00,
2014-10-01 01:16:00,54.1,51.2,29.84,WNW,283,2.0,10.0,90,0.00,,---,0.00,VWS V15.00,2014-10-01 08:16:00,
2014-10-01 01:21:00,54.1,51.2,29.84,West,259,4.0,10.0,90,0.00,,---,0.00,VWS V15.00,2014-10-01 08:21:00,
2014-10-01 01:26:00,54.0,51.1,29.84,WSW,257,6.0,10.0,90,0.00,,---,0.00,VWS V15.00,2014-10-01 08:26:00,
2014-10-01 01:30:00,53.9,51.0,29.84,West,265,2.0,10.0,90,0.00,,---,0.00,VWS V15.00,2014-10-01 08:30:00,
2014-10-01 01:35:00,53.8,51.2,29.84,West,264,0.0,10.0,91,0.00,,---,0.00,VWS V15.00,2014-10-01 08:35:00,
2014-10-01 01:40:00,53.8,51.2,29.85,West,267,0.0,5.0,91,0.00,,---,0.00,VWS V15.00,2014-10-01 08:40:00,
2014-10-01 01:45:00,53.7,51.1,29.85,NW,311,1.0,9.0,91,0.00,,---,0.00,VWS V15.00,2014-10-01 08:45:00,
2014-10-01 01:50:00,53.6,51.0,29.85,WSW,258,0.0,9.0,91,0.00,,---,0.00,VWS V15.00,2014-10-01 08:50:00,
2014-10-01 01:55:00,53.6,51.0,29.85,WSW,248,3.0,9.0,91,0.00,,---,0.00,VWS V15.00,2014-10-01 08:55:00,
2014-10-01 02:00:00,53.6,51.3,29.85,WNW,300,0.0,9.0,92,0.00,,---,0.00,VWS V15.00,2014-10-01 09:00:00,
2014-10-01 02:05:00,53.6,51.0,29.85,WNW,298,3.0,9.0,91,0.00,,---,0.00,VWS V15.00,2014-10-01 09:05:00,
2014-10-01 02:10:00,53.6,51.0,29.85,West,267,0.0,8.0,91,0.00,,---,0.00,VWS V15.00,2014-10-01 09:10:00,
2014-10-01 02:15:00,53.7,51.1,29.85,West,276,2.0,9.0,91,0.00,,---,0.00,VWS V15.00,2014-10-01 09:15:00,
2014-10-01 02:20:00,53.7,51.1,29.85,WSW,250,0.0,9.0,91,0.00,,---,0.00,VWS V15.00,2014-10-01 09:20:00,
2014-10-01 02:25:00,53.6,51.0,29.85,West,259,0.0,9.0,91,0.00,,---,0.00,VWS V15.00,2014-10-01 09:25:00,
2014-10-01 02:30:00,53.6,51.3,29.85,West,271,1.0,9.0,92,0.00,,---,0.00,VWS V15.00,2014-10-01 09:30:00,
2014-10-01 02:35:00,53.5,51.2,29.86,West,278,0.0,9.0,92,0.00,,---,0.00,VWS V15.00,2014-10-01 09:35:00,
2014-10-01 02:40:00,53.5,51.2,29.85,West,267,0.0,6.0,92,0.00,,---,0.00,VWS V15.00,2014-10-01 09:40:00,
2014-10-01 02:45:00,53.4,51.1,29.85,West,267,0.0,6.0,92,0.00,,---,0.00,VWS V15.00,2014-10-01 09:45:00,
2014-10-01 02:50:00,53.3,51.0,29.85,WSW,254,0.0,6.0,92,0.00,,---,0.00,VWS V15.00,2014-10-01 09:50:00,
2014-10-01 02:55:00,53.3,51.0,29.85,West,259,0.0,6.0,92,0.00,,---,0.00,VWS V15.00,2014-10-01 09:55:00,
2014-10-01 03:00:00,53.3,51.0,29.86,WSW,256,3.0,6.0,92,0.00,,---,0.00,VWS V15.00,2014-10-01 10:00:00,
2014-10-01 03:04:00,53.3,51.0,29.85,WSW,254,3.0,7.0,92,0.00,,---,0.00,VWS V15.00,2014-10-01 10:04:00,
2014-10-01 03:09:00,53.3,51.3,29.85,West,266,2.0,4.0,93,0.00,,---,0.00,VWS V15.00,2014-10-01 10:09:00,
2014-10-01 03:14:00,53.3,51.3,29.85,WSW,256,5.0,9.0,93,0.00,,---,0.00,VWS V15.00,2014-10-01 10:14:00,
2014-10-01 03:19:00,53.3,51.3,29.85,West,271,0.0,9.0,93,0.00,,---,0.00,VWS V15.00,2014-10-01 10:19:00,
2014-10-01 03:24:00,53.3,51.3,29.85,West,266,3.0,9.0,93,0.00,,---,0.00,VWS V15.00,2014-10-01 10:24:00,
2014-10-01 03:29:00,53.3,51.3,29.85,WSW,245,0.0,9.0,93,0.00,,---,0.00,VWS V15.00,2014-10-01 10:29:00,
2014-10-01 03:34:00,53.2,51.2,29.85,West,269,5.0,9.0,93,0.00,,---,0.00,VWS V15.00,2014-10-01 10:34:00,
2014-10-01 03:39:00,53.2,51.2,29.85,West,271,3.0,6.0,93,0.00,,---,0.00,VWS V15.00,2014-10-01 10:39:00,
2014-10-01 03:44:00,53.2,51.2,29.85,WSW,248,2.0,6.0,93,0.00,,---,0.00,VWS V15.00,2014-10-01 10:44:00,
2014-10-01 03:49:00,53.1,51.4,29.86,West,259,2.0,6.0,94,0.00,,---,0.00,VWS V15.00,2014-10-01 10:49:00,
2014-10-01 03:54:00,53.2,51.5,29.86,WSW,255,3.0,6.0,94,0.00,,---,0.00,VWS V15.00,2014-10-01 10:54:00,
2014-10-01 03:59:00,53.2,51.2,29.85,WSW,255,0.0,6.0,93,0.00,,---,0.00,VWS V15.00,2014-10-01 10:59:00,
2014-10-01 04:04:00,53.2,51.5,29.85,West,276,0.0,6.0,94,0.00,,---,0.00,VWS V15.00,2014-10-01 11:04:00,
2014-10-01 04:09:00,53.2,51.5,29.85,West,274,2.0,6.0,94,0.00,,---,0.00,VWS V15.00,2014-10-01 11:09:00,
2014-10-01 04:14:00,53.2,51.5,29.85,West,274,1.0,6.0,94,0.00,,---,0.00,VWS V15.00,2014-10-01 11:14:00,
2014-10-01 04:19:00,53.1,51.4,29.86,SW,231,0.0,7.0,94,0.00,,---,0.00,VWS V15.00,2014-10-01 11:19:00,
2014-10-01 04:24:00,53.1,51.4,29.86,WSW,257,2.0,7.0,94,0.00,,---,0.00,VWS V15.00,2014-10-01 11:24:00,
2014-10-01 04:29:00,53.1,51.4,29.86,SW,227,2.0,7.0,94,0.00,,---,0.00,VWS V15.00,2014-10-01 11:29:00,
2014-10-01 04:34:00,52.9,51.2,29.86,WSW,240,2.0,7.0,94,0.00,,---,0.00,VWS V15.00,2014-10-01 11:34:00,
2014-10-01 04:39:00,52.8,51.1,29.86,WSW,240,0.0,0.0,94,0.00,,---,0.00,VWS V15.00,2014-10-01 11:39:00,
2014-10-01 04:44:00,52.7,51.0,29.86,WSW,258,3.0,4.0,94,0.00,,---,0.00,VWS V15.00,2014-10-01 11:44:00,
2014-10-01 04:45:00,52.7,51.0,29.86,WSW,258,2.0,4.0,94,0.00,,---,0.00,VWS V15.00,2014-10-01 11:45:00,
2014-10-01 04:50:00,52.7,51.0,29.86,WSW,258,0.0,4.0,94,0.00,,---,0.00,VWS V15.00,2014-10-01 11:50:00,
2014-10-01 04:55:00,52.6,50.9,29.86,WSW,258,0.0,4.0,94,0.00,,---,0.00,VWS V15.00,2014-10-01 11:55:00,
2014-10-01 05:00:00,52.4,50.7,29.86,WSW,258,0.0,4.0,94,0.00,,---,0.00,VWS V15.00,2014-10-01 12:00:00,
2014-10-01 05:05:00,52.3,50.6,29.86,SW,231,0.0,4.0,94,0.00,,---,0.00,VWS V15.00,2014-10-01 12:05:00,
2014-10-01 05:10:00,52.2,50.8,29.86,SW,230,0.0,1.0,95,0.00,,---,0.00,VWS V15.00,2014-10-01 12:10:00,
2014-10-01 05:15:00,52.3,50.9,29.87,SW,233,0.0,4.0,95,0.00,,---,0.00,VWS V15.00,2014-10-01 12:15:00,
2014-10-01 05:20:00,52.3,50.9,29.87,SW,236,0.0,4.0,95,0.00,,---,0.00,VWS V15.00,2014-10-01 12:20:00,
2014-10-01 05:25:00,52.2,50.8,29.87,SW,236,0.0,4.0,95,0.00,,---,0.00,VWS V15.00,2014-10-01 12:25:00,
2014-10-01 05:30:00,52.1,50.7,29.87,SW,236,0.0,4.0,95,0.00,,---,0.00,VWS V15.00,2014-10-01 12:30:00,
2014-10-01 05:35:00,52.0,50.6,29.87,WSW,237,2.0,4.0,95,0.00,,---,0.00,VWS V15.00,2014-10-01 12:35:00,
2014-10-01 05:40:00,52.0,50.6,29.87,WSW,237,0.0,0.0,95,0.00,,---,0.00,VWS V15.00,2014-10-01 12:40:00,
2014-10-01 05:45:00,51.9,50.5,29.87,WSW,237,0.0,2.0,95,0.00,,---,0.00,VWS V15.00,2014-10-01 12:45:00,
2014-10-01 05:50:00,51.9,50.5,29.87,WSW,237,0.0,2.0,95,0.00,,---,0.00,VWS V15.00,2014-10-01 12:50:00,
2014-10-01 05:55:00,51.9,50.5,29.87,WSW,237,0.0,2.0,95,0.00,,---,0.00,VWS V15.00,2014-10-01 12:55:00,
2014-10-01 06:00:00,51.8,50.4,29.87,WSW,243,0.0,4.0,95,0.00,,---,0.00,VWS V15.00,2014-10-01 13:00:00,
2014-10-01 06:05:00,51.9,50.8,29.87,West,271,0.0,5.0,96,0.00,,---,0.00,VWS V15.00,2014-10-01 13:05:00,
2014-10-01 06:10:00,51.9,50.8,29.86,WSW,254,1.0,4.0,96,0.00,,---,0.00,VWS V15.00,2014-10-01 13:10:00,
2014-10-01 06:15:00,52.0,50.9,29.87,WSW,252,1.0,6.0,96,0.00,,---,0.00,VWS V15.00,2014-10-01 13:15:00,
2014-10-01 06:20:00,52.0,50.9,29.86,West,269,0.0,6.0,96,0.00,,---,0.00,VWS V15.00,2014-10-01 13:20:00,
2014-10-01 06:25:00,52.1,51.0,29.87,West,260,2.0,7.0,96,0.00,,---,0.00,VWS V15.00,2014-10-01 13:25:00,
2014-10-01 06:30:00,52.1,51.0,29.87,WNW,300,0.0,7.0,96,0.00,,---,0.00,VWS V15.00,2014-10-01 13:30:00,
2014-10-01 06:35:00,52.2,51.1,29.87,West,260,6.0,7.0,96,0.00,,---,0.00,VWS V15.00,2014-10-01 13:35:00,
2014-10-01 06:40:00,52.3,51.2,29.87,West,269,3.0,4.0,96,0.00,,---,0.00,VWS V15.00,2014-10-01 13:40:00,
2014-10-01 06:44:00,52.3,51.2,29.86,WNW,285,1.0,4.0,96,0.00,,---,0.00,VWS V15.00,2014-10-01 13:44:00,
2014-10-01 06:49:00,52.3,51.2,29.87,West,275,0.0,4.0,96,0.00,,---,0.00,VWS V15.00,2014-10-01 13:49:00,
2014-10-01 06:54:00,52.4,51.3,29.87,West,275,0.0,4.0,96,0.00,,---,0.00,VWS V15.00,2014-10-01 13:54:00,
2014-10-01 06:59:00,52.4,51.3,29.87,West,275,0.0,4.0,96,0.00,,---,0.00,VWS V15.00,2014-10-01 13:59:00,
2014-10-01 07:04:00,52.5,51.4,29.87,West,271,0.0,4.0,96,0.00,,---,0.00,VWS V15.00,2014-10-01 14:04:00,
2014-10-01 07:09:00,52.5,51.4,29.87,West,271,0.0,0.0,96,0.00,,---,0.00,VWS V15.00,2014-10-01 14:09:00,
2014-10-01 07:11:00,52.6,51.5,29.87,West,271,0.0,0.0,96,0.00,,---,0.00,VWS V15.00,2014-10-01 14:11:00,
2014-10-01 07:16:00,52.6,51.5,29.87,West,271,0.0,0.0,96,0.00,,---,0.00,VWS V15.00,2014-10-01 14:16:00,
2014-10-01 07:21:00,52.6,51.5,29.87,West,271,0.0,0.0,96,0.00,,---,0.00,VWS V15.00,2014-10-01 14:21:00,
2014-10-01 07:26:00,52.7,51.6,29.87,West,271,0.0,0.0,96,0.00,,---,0.00,VWS V15.00,2014-10-01 14:26:00,
2014-10-01 07:31:00,52.8,51.7,29.87,West,271,0.0,0.0,96,0.00,,---,0.00,VWS V15.00,2014-10-01 14:31:00,
2014-10-01 07:36:00,52.8,51.7,29.87,West,271,0.0,0.0,96,0.00,,---,0.00,VWS V15.00,2014-10-01 14:36:00,
2014-10-01 07:41:00,52.9,51.8,29.87,West,271,0.0,0.0,96,0.00,,---,0.00,VWS V15.00,2014-10-01 14:41:00,
2014-10-01 07:46:00,52.9,51.8,29.87,West,271,0.0,0.0,96,0.00,,---,0.00,VWS V15.00,2014-10-01 14:46:00,
2014-10-01 07:51:00,53.0,51.9,29.87,West,271,0.0,1.0,96,0.00,,---,0.00,VWS V15.00,2014-10-01 14:51:00,
2014-10-01 07:56:00,52.9,51.8,29.87,West,270,0.0,1.0,96,0.00,,---,0.00,VWS V15.00,2014-10-01 14:56:00,
2014-10-01 08:01:00,53.0,51.9,29.88,West,271,0.0,4.0,96,0.00,,---,0.00,VWS V15.00,2014-10-01 15:01:00,
2014-10-01 08:06:00,53.1,52.0,29.87,West,270,1.0,5.0,96,0.00,,---,0.00,VWS V15.00,2014-10-01 15:06:00,
2014-10-01 08:11:00,53.2,52.1,29.88,West,276,0.0,3.0,96,0.00,,---,0.00,VWS V15.00,2014-10-01 15:11:00,
2014-10-01 08:16:00,53.2,52.1,29.87,West,276,0.0,3.0,96,0.00,,---,0.00,VWS V15.00,2014-10-01 15:16:00,
2014-10-01 08:21:00,53.2,51.8,29.87,West,276,0.0,3.0,95,0.00,,---,0.00,VWS V15.00,2014-10-01 15:21:00,
2014-10-01 08:26:00,53.2,51.8,29.87,West,276,2.0,5.0,95,0.00,,---,0.00,VWS V15.00,2014-10-01 15:26:00,
2014-10-01 08:31:00,53.3,51.9,29.88,WSW,255,3.0,6.0,95,0.00,,---,0.00,VWS V15.00,2014-10-01 15:31:00,
2014-10-01 08:36:00,53.5,52.1,29.88,West,270,3.0,6.0,95,0.00,,---,0.00,VWS V15.00,2014-10-01 15:36:00,
2014-10-01 08:40:00,53.7,52.3,29.88,West,270,4.0,4.0,95,0.00,,---,0.00,VWS V15.00,2014-10-01 15:40:00,
2014-10-01 08:45:00,54.2,52.5,29.88,WSW,238,3.0,7.0,94,0.00,,---,0.00,VWS V15.00,2014-10-01 15:45:00,
2014-10-01 08:50:00,54.6,52.6,29.88,WSW,255,2.0,10.0,93,0.00,,---,0.00,VWS V15.00,2014-10-01 15:50:00,
2014-10-01 08:55:00,55.0,52.7,29.88,WSW,252,3.0,10.0,92,0.00,,---,0.00,VWS V15.00,2014-10-01 15:55:00,
2014-10-01 09:00:00,55.5,52.6,29.88,West,265,3.0,10.0,90,0.00,,---,0.00,VWS V15.00,2014-10-01 16:00:00,
2014-10-01 09:05:00,55.8,52.6,29.88,WSW,258,3.0,10.0,89,0.00,,---,0.00,VWS V15.00,2014-10-01 16:05:00,
2014-10-01 09:10:00,56.1,52.9,29.88,WSW,246,3.0,5.0,89,0.00,,---,0.00,VWS V15.00,2014-10-01 16:10:00,
2014-10-01 09:15:00,56.3,53.1,29.88,West,265,5.0,10.0,89,0.00,,---,0.00,VWS V15.00,2014-10-01 16:15:00,
2014-10-01 09:20:00,56.5,52.7,29.89,WSW,249,4.0,12.0,87,0.00,,---,0.00,VWS V15.00,2014-10-01 16:20:00,
2014-10-01 09:25:00,56.6,52.5,29.88,WSW,254,3.0,12.0,86,0.00,,---,0.00,VWS V15.00,2014-10-01 16:25:00,
2014-10-01 09:30:00,56.7,52.9,29.89,West,260,4.0,13.0,87,0.00,,---,0.00,VWS V15.00,2014-10-01 16:30:00,
2014-10-01 09:35:00,56.8,52.3,29.89,WSW,243,2.0,13.0,85,0.00,,---,0.00,VWS V15.00,2014-10-01 16:35:00,
2014-10-01 09:40:00,57.1,52.3,29.89,WSW,257,9.0,10.0,84,0.00,,---,0.00,VWS V15.00,2014-10-01 16:40:00,
2014-10-01 09:45:00,57.4,52.9,29.88,WNW,285,3.0,10.0,85,0.00,,---,0.00,VWS V15.00,2014-10-01 16:45:00,
2014-10-01 09:50:00,57.6,52.2,29.89,WNW,295,4.0,13.0,82,0.00,,---,0.00,VWS V15.00,2014-10-01 16:50:00,
2014-10-01 09:55:00,58.1,52.6,29.88,West,276,5.0,13.0,82,0.00,,---,0.00,VWS V15.00,2014-10-01 16:55:00,
2014-10-01 10:00:00,58.3,52.8,29.88,West,271,10.0,13.0,82,0.00,,---,0.00,VWS V15.00,2014-10-01 17:00:00,
2014-10-01 10:05:00,58.5,52.0,29.88,WSW,257,6.0,13.0,79,0.00,,---,0.00,VWS V15.00,2014-10-01 17:05:00,
2014-10-01 10:10:00,58.5,52.4,29.88,West,260,3.0,12.0,80,0.00,,---,0.00,VWS V15.00,2014-10-01 17:10:00,
2014-10-01 10:15:00,58.4,51.9,29.88,WSW,238,4.0,12.0,79,0.00,,---,0.00,VWS V15.00,2014-10-01 17:15:00,
2014-10-01 10:20:00,58.4,51.9,29.88,West,265,6.0,12.0,79,0.00,,---,0.00,VWS V15.00,2014-10-01 17:20:00,
2014-10-01 10:25:00,59.0,52.2,29.88,West,262,8.0,14.0,78,0.00,,---,0.00,VWS V15.00,2014-10-01 17:25:00,
2014-10-01 10:30:00,58.8,51.6,29.88,WSW,245,4.0,14.0,77,0.00,,---,0.00,VWS V15.00,2014-10-01 17:30:00,
2014-10-01 10:35:00,58.4,51.9,29.88,West,271,4.0,14.0,79,0.00,,---,0.00,VWS V15.00,2014-10-01 17:35:00,
2014-10-01 10:39:00,58.5,51.7,29.89,WSW,248,4.0,14.0,78,0.00,,---,0.00,VWS V15.00,2014-10-01 17:39:00,
2014-10-01 10:44:00,58.5,51.7,29.89,West,259,7.0,15.0,78,0.00,,---,0.00,VWS V15.00,2014-10-01 17:44:00,
2014-10-01 10:49:00,58.9,52.1,29.88,West,269,2.0,15.0,78,0.00,,---,0.00,VWS V15.00,2014-10-01 17:49:00,
2014-10-01 10:54:00,59.8,52.2,29.89,West,277,2.0,15.0,76,0.00,,---,0.00,VWS V15.00,2014-10-01 17:54:00,
2014-10-01 10:59:00,60.0,52.1,29.88,West,262,3.0,15.0,75,0.00,,---,0.00,VWS V15.00,2014-10-01 17:59:00,
2014-10-01 11:04:00,59.2,51.7,29.88,West,272,7.0,15.0,76,0.00,,---,0.00,VWS V15.00,2014-10-01 18:04:00,
2014-10-01 11:09:00,59.2,50.9,29.88,West,265,7.0,13.0,74,0.00,,---,0.00,VWS V15.00,2014-10-01 18:09:00,
2014-10-01 11:14:00,60.3,51.6,29.88,WSW,239,7.0,13.0,73,0.00,,---,0.00,VWS V15.00,2014-10-01 18:14:00,
2014-10-01 11:19:00,59.7,51.4,29.88,WNW,283,8.0,13.0,74,0.00,,---,0.00,VWS V15.00,2014-10-01 18:19:00,
2014-10-01 11:24:00,60.2,50.4,29.89,West,278,1.0,14.0,70,0.00,,---,0.00,VWS V15.00,2014-10-01 18:24:00,
2014-10-01 11:29:00,60.3,50.1,29.89,West,271,4.0,14.0,69,0.00,,---,0.00,VWS V15.00,2014-10-01 18:29:00,
2014-10-01 11:34:00,60.6,51.2,29.88,West,267,7.0,14.0,71,0.00,,---,0.00,VWS V15.00,2014-10-01 18:34:00,
2014-10-01 11:39:00,60.9,51.1,29.89,West,259,7.0,10.0,70,0.00,,---,0.00,VWS V15.00,2014-10-01 18:39:00,
2014-10-01 11:44:00,61.4,51.5,29.89,West,259,7.0,10.0,70,0.00,,---,0.00,VWS V15.00,2014-10-01 18:44:00,
2014-10-01 11:49:00,60.8,50.6,29.89,WNW,282,10.0,11.0,69,0.00,,---,0.00,VWS V15.00,2014-10-01 18:49:00,
2014-10-01 11:54:00,60.2,50.8,29.89,West,276,1.0,16.0,71,0.00,,---,0.00,VWS V15.00,2014-10-01 18:54:00,
2014-10-01 11:59:00,61.9,51.2,29.89,West,281,8.0,17.0,68,0.00,,---,0.00,VWS V15.00,2014-10-01 18:59:00,
2014-10-01 12:04:00,60.4,50.2,29.89,SW,231,6.0,17.0,69,0.00,,---,0.00,VWS V15.00,2014-10-01 19:04:00,
2014-10-01 12:09:00,61.0,50.4,29.88,ESE,115,2.0,13.0,68,0.00,,---,0.00,VWS V15.00,2014-10-01 19:09:00,
2014-10-01 12:14:00,60.9,49.9,29.89,West,264,8.0,13.0,67,0.00,,---,0.00,VWS V15.00,2014-10-01 19:14:00,
2014-10-01 12:19:00,61.3,49.5,29.88,West,264,7.0,13.0,65,0.00,,---,0.00,VWS V15.00,2014-10-01 19:19:00,
2014-10-01 12:23:00,61.8,48.7,29.88,WSW,257,10.0,13.0,62,0.00,,---,0.00,VWS V15.00,2014-10-01 19:23:00,
2014-10-01 12:28:00,61.9,47.4,29.88,NNW,336,1.0,13.0,59,0.00,,---,0.00,VWS V15.00,2014-10-01 19:28:00,
2014-10-01 12:33:00,61.7,46.8,29.88,West,269,11.0,14.0,58,0.00,,---,0.00,VWS V15.00,2014-10-01 19:33:00,
2014-10-01 12:37:00,61.7,46.8,29.88,West,259,4.0,14.0,58,0.00,,---,0.00,VWS V15.00,2014-10-01 19:37:00,
2014-10-01 12:42:00,62.1,45.3,29.88,WSW,255,7.0,9.0,54,0.00,,---,0.00,VWS V15.00,2014-10-01 19:42:00,
2014-10-01 12:47:00,61.2,44.4,29.87,WSW,238,5.0,11.0,54,0.00,,---,0.00,VWS V15.00,2014-10-01 19:47:00,
2014-10-01 12:52:00,61.1,44.8,29.87,WNW,286,7.0,12.0,55,0.00,,---,0.00,VWS V15.00,2014-10-01 19:52:00,
2014-10-01 12:57:00,61.9,45.6,29.87,WNW,283,9.0,12.0,55,0.00,,---,0.00,VWS V15.00,2014-10-01 19:57:00,
2014-10-01 13:02:00,61.9,45.6,29.87,South,187,2.0,12.0,55,0.00,,---,0.00,VWS V15.00,2014-10-01 20:02:00,
2014-10-01 13:07:00,61.9,47.0,29.88,West,261,5.0,12.0,58,0.00,,---,0.00,VWS V15.00,2014-10-01 20:07:00,
2014-10-01 13:12:00,62.0,44.7,29.87,WSW,257,9.0,12.0,53,0.00,,---,0.00,VWS V15.00,2014-10-01 20:12:00,
2014-10-01 13:17:00,61.2,45.4,29.88,NW,322,3.0,15.0,56,0.00,,---,0.00,VWS V15.00,2014-10-01 20:17:00,
2014-10-01 13:19:00,61.6,45.8,29.88,SW,236,8.0,15.0,56,0.00,,---,0.00,VWS V15.00,2014-10-01 20:19:00,
2014-10-01 13:24:00,61.2,46.3,29.87,NW,305,7.0,15.0,58,0.00,,---,0.00,VWS V15.00,2014-10-01 20:24:00,
2014-10-01 13:29:00,61.1,46.7,29.88,WSW,255,8.0,15.0,59,0.00,,---,0.00,VWS V15.00,2014-10-01 20:29:00,
2014-10-01 13:34:00,60.3,46.8,29.87,WSW,244,2.0,15.0,61,0.00,,---,0.00,VWS V15.00,2014-10-01 20:34:00,
2014-10-01 13:39:00,60.5,47.0,29.87,West,264,6.0,8.0,61,0.00,,---,0.00,VWS V15.00,2014-10-01 20:39:00,
2014-10-01 13:44:00,61.6,46.2,29.87,WNW,287,5.0,11.0,57,0.00,,---,0.00,VWS V15.00,2014-10-01 20:44:00,
2014-10-01 13:49:00,62.4,47.0,29.87,WSW,240,9.0,13.0,57,0.00,,---,0.00,VWS V15.00,2014-10-01 20:49:00,
2014-10-01 13:54:00,62.6,47.6,29.86,SW,229,4.0,13.0,58,0.00,,---,0.00,VWS V15.00,2014-10-01 20:54:00,
2014-10-01 13:59:00,63.6,47.2,29.86,West,269,4.0,13.0,55,0.00,,---,0.00,VWS V15.00,2014-10-01 20:59:00,
2014-10-01 14:04:00,63.0,47.1,29.86,West,260,8.0,15.0,56,0.00,,---,0.00,VWS V15.00,2014-10-01 21:04:00,
2014-10-01 14:09:00,63.1,47.2,29.86,West,279,1.0,11.0,56,0.00,,---,0.00,VWS V15.00,2014-10-01 21:09:00,
2014-10-01 14:13:00,62.8,45.9,29.86,West,260,5.0,16.0,54,0.00,,---,0.00,VWS V15.00,2014-10-01 21:13:00,
2014-10-01 14:18:00,63.0,45.6,29.86,West,271,11.0,16.0,53,0.00,,---,0.00,VWS V15.00,2014-10-01 21:18:00,
2014-10-01 14:23:00,62.2,45.8,29.86,WSW,250,13.0,16.0,55,0.00,,---,0.00,VWS V15.00,2014-10-01 21:23:00,
2014-10-01 14:28:00,62.0,46.6,29.85,WNW,283,6.0,18.0,57,0.00,,---,0.00,VWS V15.00,2014-10-01 21:28:00,
2014-10-01 14:33:00,61.9,46.0,29.85,SW,226,5.0,18.0,56,0.00,,---,0.00,VWS V15.00,2014-10-01 21:33:00,
2014-10-01 14:36:00,62.6,46.7,29.85,West,273,4.0,18.0,56,0.00,,---,0.00,VWS V15.00,2014-10-01 21:36:00,
2014-10-01 14:41:00,62.5,46.6,29.85,WSW,245,7.0,16.0,56,0.00,,---,0.00,VWS V15.00,2014-10-01 21:41:00,
2014-10-01 14:46:00,62.3,46.0,29.85,West,259,12.0,18.0,55,0.00,,---,0.00,VWS V15.00,2014-10-01 21:46:00,
2014-10-01 14:51:00,61.9,46.0,29.85,WNW,294,7.0,18.0,56,0.00,,---,0.00,VWS V15.00,2014-10-01 21:51:00,
2014-10-01 14:56:00,62.2,46.3,29.85,West,276,13.0,20.0,56,0.00,,---,0.00,VWS V15.00,2014-10-01 21:56:00,
2014-10-01 15:01:00,62.1,46.7,29.85,West,259,6.0,20.0,57,0.00,,---,0.00,VWS V15.00,2014-10-01 22:01:00,
2014-10-01 15:06:00,61.8,46.9,29.85,WNW,290,7.0,20.0,58,0.00,,---,0.00,VWS V15.00,2014-10-01 22:06:00,
2014-10-01 15:11:00,62.2,47.3,29.84,WSW,250,13.0,15.0,58,0.00,,---,0.00,VWS V15.00,2014-10-01 22:11:00,
2014-10-01 15:16:00,61.9,47.4,29.84,West,268,13.0,19.0,59,0.00,,---,0.00,VWS V15.00,2014-10-01 22:16:00,
2014-10-01 15:20:00,62.9,48.4,29.84,SSW,194,8.0,19.0,59,0.00,,---,0.00,VWS V15.00,2014-10-01 22:20:00,
2014-10-01 15:25:00,62.8,48.3,29.85,WNW,288,7.0,19.0,59,0.00,,---,0.00,VWS V15.00,2014-10-01 22:25:00,
2014-10-01 15:30:00,62.4,47.9,29.85,WSW,247,5.0,19.0,59,0.00,,---,0.00,VWS V15.00,2014-10-01 22:30:00,
2014-10-01 15:35:00,61.9,47.0,29.85,SW,226,7.0,19.0,58,0.00,,---,0.00,VWS V15.00,2014-10-01 22:35:00,
2014-10-01 15:40:00,60.7,46.8,29.85,West,269,8.0,14.0,60,0.00,,---,0.00,VWS V15.00,2014-10-01 22:40:00,
2014-10-01 15:45:00,60.3,46.8,29.85,West,270,4.0,16.0,61,0.00,,---,0.00,VWS V15.00,2014-10-01 22:45:00,
2014-10-01 15:50:00,60.1,46.2,29.85,SW,234,8.0,16.0,60,0.00,,---,0.00,VWS V15.00,2014-10-01 22:50:00,
2014-10-01 15:55:00,60.6,45.8,29.85,WNW,283,10.0,16.0,58,0.00,,---,0.00,VWS V15.00,2014-10-01 22:55:00,
2014-10-01 16:00:00,60.8,46.0,29.85,WSW,255,5.0,16.0,58,0.00,,---,0.00,VWS V15.00,2014-10-01 23:00:00,
2014-10-01 16:05:00,61.5,45.7,29.84,West,268,11.0,19.0,56,0.00,,---,0.00,VWS V15.00,2014-10-01 23:05:00,
2014-10-01 16:10:00,61.6,46.2,29.85,WNW,296,8.0,9.0,57,0.00,,---,0.00,VWS V15.00,2014-10-01 23:10:00,
2014-10-01 16:15:00,61.5,45.7,29.85,WSW,246,4.0,12.0,56,0.00,,---,0.00,VWS V15.00,2014-10-01 23:15:00,
2014-10-01 16:20:00,61.1,45.3,29.85,SW,226,4.0,16.0,56,0.00,,---,0.00,VWS V15.00,2014-10-01 23:20:00,
2014-10-01 16:25:00,60.8,45.5,29.85,WNW,297,6.0,16.0,57,0.00,,---,0.00,VWS V15.00,2014-10-01 23:25:00,
2014-10-01 16:30:00,60.7,44.5,29.85,West,266,10.0,20.0,55,0.00,,---,0.00,VWS V15.00,2014-10-01 23:30:00,
2014-10-01 16:34:00,60.4,45.6,29.85,West,278,2.0,20.0,58,0.00,,---,0.00,VWS V15.00,2014-10-01 23:34:00,
2014-10-01 16:35:00,60.6,45.8,29.85,WSW,238,3.0,20.0,58,0.00,,---,0.00,VWS V15.00,2014-10-01 23:35:00,
2014-10-01 16:40:00,60.4,45.1,29.85,West,263,4.0,14.0,57,0.00,,---,0.00,VWS V15.00,2014-10-01 23:40:00,
2014-10-01 16:45:00,59.9,45.1,29.86,West,259,1.0,15.0,58,0.00,,---,0.00,VWS V15.00,2014-10-01 23:45:00,
2014-10-01 16:50:00,59.5,45.6,29.86,West,278,1.0,17.0,60,0.00,,---,0.00,VWS V15.00,2014-10-01 23:50:00,
2014-10-01 16:55:00,59.4,44.6,29.86,WNW,295,8.0,17.0,58,0.00,,---,0.00,VWS V15.00,2014-10-01 23:55:00,
2014-10-01 17:00:00,59.1,44.8,29.85,West,264,6.0,17.0,59,0.00,,---,0.00,VWS V15.00,2014-10-02 00:00:00,
2014-10-01 17:05:00,59.2,45.3,29.85,WSW,250,6.0,17.0,60,0.00,,---,0.00,VWS V15.00,2014-10-02 00:05:00,
2014-10-01 17:10:00,59.1,45.2,29.85,WNW,283,2.0,18.0,60,0.00,,---,0.00,VWS V15.00,2014-10-02 00:10:00,
2014-10-01 17:15:00,59.0,45.2,29.85,West,274,9.0,18.0,60,0.00,,---,0.00,VWS V15.00,2014-10-02 00:15:00,
2014-10-01 17:20:00,58.9,45.1,29.85,West,262,5.0,19.0,60,0.00,,---,0.00,VWS V15.00,2014-10-02 00:20:00,
2014-10-01 17:25:00,59.1,45.2,29.85,WNW,299,12.0,19.0,60,0.00,,---,0.00,VWS V15.00,2014-10-02 00:25:00,
2014-10-01 17:30:00,59.3,45.4,29.85,WSW,255,14.0,19.0,60,0.00,,---,0.00,VWS V15.00,2014-10-02 00:30:00,
2014-10-01 17:35:00,59.0,46.0,29.85,West,274,6.0,19.0,62,0.00,,---,0.00,VWS V15.00,2014-10-02 00:35:00,
2014-10-01 17:40:00,58.9,46.8,29.86,WSW,255,4.0,14.0,64,0.00,,---,0.00,VWS V15.00,2014-10-02 00:40:00,
2014-10-01 17:45:00,58.7,47.0,29.86,West,281,5.0,17.0,65,0.00,,---,0.00,VWS V15.00,2014-10-02 00:45:00,
2014-10-01 17:50:00,58.5,47.2,29.86,WNW,283,3.0,17.0,66,0.00,,---,0.00,VWS V15.00,2014-10-02 00:50:00,
2014-10-01 17:55:00,58.3,46.6,29.86,WSW,255,13.0,17.0,65,0.00,,---,0.00,VWS V15.00,2014-10-02 00:55:00,
2014-10-01 18:00:00,58.0,46.7,29.86,WSW,240,6.0,17.0,66,0.00,,---,0.00,VWS V15.00,2014-10-02 01:00:00,
2014-10-01 18:05:00,57.6,47.1,29.86,West,264,4.0,17.0,68,0.00,,---,0.00,VWS V15.00,2014-10-02 01:05:00,
2014-10-01 18:10:00,57.4,47.3,29.86,West,259,1.0,8.0,69,0.00,,---,0.00,VWS V15.00,2014-10-02 01:10:00,
2014-10-01 18:15:00,57.2,47.1,29.86,West,266,5.0,8.0,69,0.00,,---,0.00,VWS V15.00,2014-10-02 01:15:00,
2014-10-01 18:20:00,57.0,46.9,29.86,WSW,258,7.0,8.0,69,0.00,,---,0.00,VWS V15.00,2014-10-02 01:20:00,
2014-10-01 18:25:00,57.0,46.6,29.86,WNW,287,3.0,10.0,68,0.00,,---,0.00,VWS V15.00,2014-10-02 01:25:00,
2014-10-01 18:30:00,57.0,46.6,29.85,West,264,0.0,15.0,68,0.00,,---,0.00,VWS V15.00,2014-10-02 01:30:00,
2014-10-01 18:34:00,56.9,46.5,29.85,West,278,9.0,15.0,68,0.00,,---,0.00,VWS V15.00,2014-10-02 01:34:00,
2014-10-01 18:39:00,56.8,47.1,29.85,West,264,1.0,5.0,70,0.00,,---,0.00,VWS V15.00,2014-10-02 01:39:00,
2014-10-01 18:44:00,56.6,46.9,29.85,West,262,4.0,10.0,70,0.00,,---,0.00,VWS V15.00,2014-10-02 01:44:00,
2014-10-01 18:49:00,56.4,47.1,29.85,WSW,240,10.0,10.0,71,0.00,,---,0.00,VWS V15.00,2014-10-02 01:49:00,
2014-10-01 18:54:00,56.3,47.4,29.85,WNW,300,5.0,13.0,72,0.00,,---,0.00,VWS V15.00,2014-10-02 01:54:00,
2014-10-01 18:59:00,56.2,47.7,29.85,West,264,2.0,13.0,73,0.00,,---,0.00,VWS V15.00,2014-10-02 01:59:00,
2014-10-01 19:04:00,56.1,47.9,29.85,West,276,5.0,13.0,74,0.00,,---,0.00,VWS V15.00,2014-10-02 02:04:00,